This is the latest recevied weather packets stored in our database for station/object N5CSU. If no packets are shown the sender has not sent any weather packets the latest 10 day(s).
| Time | Temp. | Humidity | Pressure | Rain* | Wind** | Luminosity | Snow |
|---|---|---|---|---|---|---|---|
| 1777989213 | 22.78° C | 86% | 1005.9 hPa | 0 mm | - | 12 W/m² | - |
| 1777988910 | 22.22° C | 86% | 1005.8 hPa | 0 mm | - | 7 W/m² | - |
| 1777988607 | 22.22° C | 86% | 1005.7 hPa | 0 mm | - | 9 W/m² | - |
| 1777988303 | 22.22° C | 86% | 1005.4 hPa | 0 mm | - | 10 W/m² | - |
| 1777988001 | 22.22° C | 86% | 1005.4 hPa | 0 mm | - | 13 W/m² | - |
| 1777987696 | 22.22° C | 87% | 1005.3 hPa | 0 mm | - | 12 W/m² | - |
| 1777987393 | 22.22° C | 87% | 1005.4 hPa | 0 mm | - | 8 W/m² | - |
| 1777987090 | 22.22° C | 87% | 1005.2 hPa | 0 mm | - | 8 W/m² | - |
| 1777986788 | 22.22° C | 87% | 1005.4 hPa | 0 mm | - | 6 W/m² | - |
| 1777986485 | 22.22° C | 87% | 1005.2 hPa | 0 mm | - | 6 W/m² | - |
| 1777986183 | 22.22° C | 87% | 1005.3 hPa | 0 mm | - | 5 W/m² | - |
| 1777985880 | 21.67° C | 87% | 1005.3 hPa | 0 mm | - | 5 W/m² | - |
| 1777985577 | 21.67° C | 87% | 1005.1 hPa | 0 mm | - | 3 W/m² | - |
| 1777985274 | 21.67° C | 87% | 1005.3 hPa | 0 mm | - | 4 W/m² | - |
| 1777984971 | 21.67° C | 87% | 1005.2 hPa | 0 mm | - | 3 W/m² | - |
| 1777984666 | 21.67° C | 87% | 1005.1 hPa | 0 mm | - | 3 W/m² | - |
| 1777984363 | 21.67° C | 87% | 1005 hPa | 0 mm | - | 2 W/m² | - |
| 1777984060 | 21.67° C | 87% | 1004.8 hPa | 0 mm | - | 2 W/m² | - |
| 1777983757 | 21.67° C | 87% | 1004.8 hPa | 0 mm | - | 2 W/m² | - |
| 1777983453 | 21.67° C | 87% | 1004.7 hPa | 0 mm | - | 1 W/m² | - |
| 1777983150 | 21.67° C | 87% | 1004.8 hPa | 0 mm | - | 1 W/m² | - |
| 1777982846 | 21.67° C | 87% | 1004.9 hPa | 0 mm | - | 1 W/m² | - |
| 1777982543 | 21.67° C | 87% | 1004.7 hPa | 0 mm | - | 1 W/m² | - |
| 1777982241 | 21.67° C | 87% | 1004.7 hPa | 0 mm | - | 0 W/m² | - |
| 1777981939 | 21.67° C | 87% | 1004.4 hPa | 0 mm | - | 0 W/m² | - |
* Rain latest hour (hover to see other rain measurements)
** Current wind speed in m/s (hover to see current wind gust speed)